Location: Auttagershofen
(48.1940°N, 10.0237°E)
Time: 10:47:58
(UTC+00:00)

IGS 5A - Pass Details

Date: 18 January 2026
Orbit: 551 x 554 km, 97.4° (Epoch: 8 January)

Event Time Altitude Azimuth Distance (km) Brightness Sun altitude
Rises 05:46:51 0° 7° (N) 2,741 6.8 -12.5°
Reaches altitude 10° 05:49:04 10° 0° (N) 1,841 5.8 -12.1°
Maximum altitude 05:52:50 43° 289° (WNW) 791 3.6 -11.5°
Drops below altitude 10° 05:56:34 10° 218° (SW) 1,827 5.8 -10.9°
Sets 05:58:46 0° 212° (SSW) 2,717 6.7 -10.6°
